パンスターズ彗星

P/2012 T3 ( PanSTARRS )

English version
Home page
Updated on February 16, 2014

---------------------------------------------------------------------

・ プロフィール

発見日 2012年10月10日
発見光度 21.3等
発見者 Pan-STARRS 1 telescope (Haleakala)

・ 写真集

・ 軌道要素

Epoch 2012 Apr. 23.0 TT = JDT 2456040.5
T 2012 Apr. 24.88981 TT                                 MPC
q   2.3704813            (2000.0)            P               Q
n   0.06434559     Peri.  195.39661     +0.63711950     +0.75584709
a   6.1677037      Node   114.42975     -0.68850478     +0.64611856
e   0.6156623      Incl.    9.54081     -0.34646777     +0.10595275
P  15.3
From 32 observations 2012 Oct. 10-19, mean residual 0".4.

・ 光度変化

        m1 = 14.5 + 5 logΔ + 10.0 log r

---------------------------------------------------------------------

軌道要素はM.P.E.C. 2012-U109に掲載されたものです。
光度グラフはComet for Windowsで作成したものです。

---------------------------------------------------------------------

Copyright(C) Seiichi Yoshida (comet@aerith.net). All rights reserved.